Regional Weather Roundup
Issued by NWS Newport/Morehead, NC

Current Version | Previous Version | Text Only | Print | Product List | Glossary On
Versions: 1 2 3 4 5 6 7 8 9 10 11 12 13 14 15 16 17 18 19 20 21 22 23 24 25 26 27 28 29 30 31 32 33 34 35 36 37 38 39 40 41 42 43 44 45 46 47 48 49 50
000 ASUS42 KMHX 141922 RWRMHX WEATHER ROUNDUP FOR EASTERN NORTH CAROLINA NATIONAL WEATHER SERVICE NEWPORT/MOREHEAD CITY NC 300 PM EDT SUN SEP 14 2014 NOTE: "FAIR" INDICATES FEW OR NO CLOUDS BELOW 12,000 FEET WITH NO SIGNIFICANT WEATHER AND/OR OBSTRUCTIONS TO VISIBILITY NCZ015>017-031-032-045>047-102-103-142000- NORTH COAST CITY SKY/WX TMP DP RH WIND PRES REMARKS EDENTON MOSUNNY 74 61 63 NE6 30.21S ELIZABETH CITY SUNNY 72 58 61 NE13 30.21F KITTY HAWK MOCLDY 72 60 67 N9 30.19S MANTEO PTSUNNY 72 61 69 N15 30.20S $$ NCZ045>047-081-094-103-104-142000- CENTRAL COAST CITY SKY/WX TMP DP RH WIND PRES REMARKS FRISCO PTSUNNY 72 66 81 NE15G25 30.17F SWANQUARTER N/A 75 N/A N/A N7G14 30.15F $$ NCZ095-097-098-100-101-142000- SOUTHERN COAST CITY SKY/WX TMP DP RH WIND PRES REMARKS BEAUFORT CLOUDY 76 68 76 NE9 30.18S CEDAR ISLAND N/A 75 N/A N/A NE12G20 30.21F JACKSONVILLE CLOUDY 73 65 75 N9 30.19F NEWPORT NOT AVBL PINEY ISLAND CLOUDY 76 66 71 NE10 30.18F WILMINGTON CLOUDY 74 66 76 N8 30.19F $$ NCZ011>013-027>030-043-044-078>080-089-090>093-098-142000- COASTAL PLAIN CITY SKY/WX TMP DP RH WIND PRES REMARKS AHOSKIE MOSUNNY 72 60 67 N7 30.22F CLINTON CLOUDY 71 62 74 NE6 30.22F ELIZABETHTOWN CLOUDY 71 62 74 CALM 30.21F GOLDSBORO CLOUDY 74 65 73 CALM 30.20F GREENVILLE PTSUNNY 75 61 60 NE8 30.22S HAVELOCK CLOUDY 75 65 70 NE7 30.20S KENANSVILLE CLOUDY 70 60 70 CALM 30.23F KINSTON CLOUDY 73 61 64 NE3 30.22F NEW BERN CLOUDY 75 66 73 N8 30.21F RICHLANDS CLOUDY 70 63 78 NW3 30.21S ROANOKE RAPIDS NOT AVBL ROCKY MOUNT CLOUDY 73 60 63 NE6 30.23F WASHINGTON PTSUNNY 74 62 64 E6 30.21S WHITEVILLE CLOUDY 70 64 82 NE3 30.19F $$ AMZ130-135-150-152-154-156-158-170-250-252-270-ANZ085-086-088-633-658-670-142000- MARINE OBSERVATIONS STATION/POSITION TIME TEMP WIND PRES WAVE SWELL AIR SEA DIR/SP/G HT/PER HT/PER (UTC) (F) (DEG/KT/KT) (MB) (FT/S) (FT/S) CHESAPEAKE LIGHT 1900 67 30/ 12/ 14 1024.0 BUOY 44014 1900 71 80 10/ 16/ 19 1021.7 5/ 7 DUCK 1900 69 77 20/ 16/ 18 1022.0 2E DUCK 1900 N/A 5/ 7 OREGON INLET 1900 71 78 360/ 10/ 17 1022.3 BUOY 44095 1900 76 N/A 6/ 7 20E OREGON INLET NOT AVBL HATTERAS CG 1900 74 80 20/ 19/ 24 1021.9 DIAMOND BUOY 1900 75 360/ 19/ 21 1020.6 4/ 5 2/ 7 CAPE LOOKOUT 1900 75 30/ 16/ 18 1021.6 BEAUFORT LAB 1900 75 81 30/ 7/ 11 1021.4 30 SE NEW RIVER 1900 77 82 40/ 16/ 17 1021.5 4/ 5 5 SE WRIGHTSVILL 1900 72 82 30/ 12/ 16 N/A BUOY 41002 1824 77 83 260/ 8/ 10 1021.8 3/ 5 2/ 5 BUOY 41004 1900 79 83 50/ 6/ 8 1020.3 2/ 4 2/ 5 $$

USA.gov is the U.S. government's official web portal to all federal, state and local government web resources and services.